Terminal Aerodrome Forecast
Issued by NWS Tampa Bay Area, FL

Home | Current Version | Previous Version | Text Only | Print | Product List | Glossary On
Versions: 1 2 3 4 5 6 7 8 9 10 11 12 13 14 15 16 17 18 19 20 21 22 23 24 25 26 27 28 29
000
FTUS42 KTBW 291133
TAFTPA
TAF
KTPA 291133Z 2912/3012 08005KT P6SM SKC
     FM291400 10007KT P6SM SCT030 SCT250
     FM291700 07007KT P6SM SCT045 SCT250
     FM292100 02007KT P6SM BKN050
     FM300100 07006KT P6SM SCT050 SCT250
     FM300500 07004KT P6SM SCT250=

USA.gov is the U.S. government's official web portal to all federal, state and local government web resources and services.